RYR56R LBSF-LICC

Flight info

Callsign RYR56R
Flight time 1h 37m
Altitude 36000
Route LBSF 27 NAPE3T NAPET T214 LETNI P92 ABADI DCT CDC L137 RCA Y93 NATOV DCT LICC I08 Z
Aircraft B738/M-VGDW/C

Departure

Time 2026-04-30 19:32
Airport Sofia Airport (LBSF)

Arrival

Time 2026-04-30 21:10
Airport Catania-Fontanarossa Airport (LICC)
Time Latitude Longitude Altitude Speed Heading
2026-04-30 19:05 42.68991 23.40935 1752 ft 0 kts 162°
2026-04-30 19:24 42.68977 23.40942 1749 ft 7 kts 161°
2026-04-30 19:25 42.68981 23.41178 1750 ft 9 kts 62°
2026-04-30 19:26 42.69092 23.41210 1745 ft 9 kts 340°
2026-04-30 19:26 42.69232 23.41158 1746 ft 13 kts
2026-04-30 19:26 42.69328 23.41181 1752 ft 15 kts 11°
2026-04-30 19:27 42.69484 23.41307 1748 ft 14 kts 92°
2026-04-30 19:27 42.69467 23.41590 1752 ft 18 kts 96°
2026-04-30 19:28 42.69457 23.41759 1752 ft 18 kts 94°
2026-04-30 19:28 42.69439 23.42084 1752 ft 17 kts 95°
2026-04-30 19:29 42.69419 23.42416 1752 ft 19 kts 93°
2026-04-30 19:29 42.69409 23.42601 1752 ft 21 kts 94°
2026-04-30 19:30 42.69370 23.43238 1752 ft 24 kts 95°
2026-04-30 19:30 42.69341 23.43706 1752 ft 24 kts 95°
2026-04-30 19:31 42.69364 23.43937 1751 ft 10 kts 28°
2026-04-30 19:31 42.69428 23.43951 1751 ft 9 kts
2026-04-30 19:31 42.69522 23.43871 1752 ft 9 kts 276°
2026-04-30 19:32 42.69530 23.43731 1753 ft 36 kts 274°
2026-04-30 19:32 42.69574 23.42986 1752 ft 120 kts 274°
2026-04-30 19:32 42.69660 23.41529 1764 ft 185 kts 275°
2026-04-30 19:32 42.69766 23.39692 2478 ft 202 kts 276°
2026-04-30 19:33 42.70169 23.37806 3255 ft 211 kts 309°
2026-04-30 19:33 42.71166 23.36430 4163 ft 200 kts 315°
2026-04-30 19:33 42.72033 23.35014 4990 ft 193 kts 312°
2026-04-30 19:33 42.72851 23.33578 5763 ft 191 kts 313°
2026-04-30 19:34 42.73666 23.32137 6494 ft 190 kts 314°
2026-04-30 19:34 42.74462 23.30725 7188 ft 189 kts 314°
2026-04-30 19:34 42.76033 23.27906 8608 ft 186 kts 307°
2026-04-30 19:35 42.76507 23.26260 9281 ft 190 kts 290°
2026-04-30 19:35 42.76770 23.24380 9518 ft 215 kts 275°
2026-04-30 19:35 42.76751 23.22257 9739 ft 234 kts 274°
2026-04-30 19:35 42.76773 23.19983 10145 ft 241 kts 274°
2026-04-30 19:36 42.76805 23.17680 10628 ft 246 kts 274°
2026-04-30 19:36 42.76838 23.15332 11115 ft 250 kts 274°
2026-04-30 19:36 42.76248 23.10702 12102 ft 264 kts 234°
2026-04-30 19:37 42.74785 23.09181 12634 ft 270 kts 201°
2026-04-30 19:37 42.72939 23.08686 13205 ft 271 kts 189°
2026-04-30 19:37 42.71063 23.08350 13736 ft 273 kts 189°
2026-04-30 19:37 42.69174 23.08013 14249 ft 274 kts 189°
2026-04-30 19:38 42.67275 23.07674 14740 ft 276 kts 190°
2026-04-30 19:38 42.65364 23.07328 15234 ft 278 kts 190°
2026-04-30 19:38 42.63439 23.06977 15697 ft 281 kts 191°
2026-04-30 19:38 42.61469 23.06614 16194 ft 288 kts 191°
2026-04-30 19:39 42.59470 23.06243 16734 ft 293 kts 191°
2026-04-30 19:39 42.57433 23.05865 17282 ft 298 kts 191°
2026-04-30 19:39 42.55356 23.05477 17824 ft 303 kts 191°
2026-04-30 19:39 42.53278 23.05091 18378 ft 308 kts 191°
2026-04-30 19:40 42.51132 23.04691 18885 ft 313 kts 192°
2026-04-30 19:40 42.48958 23.04286 19381 ft 318 kts 192°
2026-04-30 19:40 42.46754 23.03876 19877 ft 323 kts 192°
2026-04-30 19:40 42.44520 23.03461 20384 ft 327 kts 193°
2026-04-30 19:41 42.42240 23.03038 20896 ft 331 kts 193°
2026-04-30 19:41 42.40361 23.02689 21285 ft 335 kts 193°
2026-04-30 19:41 42.38149 23.02279 21801 ft 337 kts 193°
2026-04-30 19:42 42.36567 23.01986 22158 ft 340 kts 194°
2026-04-30 19:42 42.34208 23.01549 22684 ft 343 kts 194°
2026-04-30 19:42 42.31848 23.01110 23232 ft 344 kts 195°
2026-04-30 19:42 42.29590 23.00173 23733 ft 333 kts 217°
2026-04-30 19:43 42.27831 22.98312 24247 ft 322 kts 233°
2026-04-30 19:43 42.26530 22.95886 24724 ft 318 kts 241°
2026-04-30 19:43 42.25346 22.93372 25196 ft 319 kts 241°
2026-04-30 19:44 42.22964 22.88299 26174 ft 319 kts 241°
2026-04-30 19:44 42.21773 22.85783 26672 ft 319 kts 240°
2026-04-30 19:44 42.20577 22.83269 27172 ft 318 kts 241°
2026-04-30 19:44 42.19376 22.80753 27689 ft 316 kts 241°
2026-04-30 19:45 42.18200 22.78295 28214 ft 315 kts 241°
2026-04-30 19:45 42.17015 22.75821 28736 ft 313 kts 241°
2026-04-30 19:45 42.15836 22.73361 29210 ft 312 kts 241°
2026-04-30 19:45 42.14665 22.70920 29720 ft 309 kts 241°
2026-04-30 19:46 42.13503 22.68500 30234 ft 307 kts 241°
2026-04-30 19:46 42.12341 22.66086 30673 ft 305 kts 241°
2026-04-30 19:46 42.11193 22.63702 31096 ft 302 kts 241°
2026-04-30 19:46 42.10148 22.61277 31512 ft 297 kts 249°
2026-04-30 19:47 42.09394 22.58685 31746 ft 298 kts 256°
2026-04-30 19:47 42.08443 22.53040 31613 ft 323 kts 259°
2026-04-30 19:48 42.07472 22.46958 31693 ft 339 kts 259°
2026-04-30 19:48 42.06975 22.43878 31940 ft 342 kts 259°
2026-04-30 19:48 42.06469 22.40752 32142 ft 345 kts 259°
2026-04-30 19:48 42.05951 22.37575 32377 ft 348 kts 259°
2026-04-30 19:49 42.05426 22.34370 32616 ft 350 kts 259°
2026-04-30 19:49 42.04367 22.27911 33078 ft 355 kts 259°
2026-04-30 19:49 42.03834 22.24679 33311 ft 357 kts 259°
2026-04-30 19:50 42.03290 22.21381 33558 ft 359 kts 259°
2026-04-30 19:50 42.02748 22.18102 33797 ft 360 kts 259°
2026-04-30 19:50 42.02202 22.14803 34044 ft 362 kts 259°
2026-04-30 19:50 42.01659 22.11533 34279 ft 363 kts 259°
2026-04-30 19:51 42.01108 22.08219 34488 ft 364 kts 259°
2026-04-30 19:51 42.00555 22.04899 34693 ft 364 kts 259°
2026-04-30 19:51 41.99998 22.01565 34899 ft 365 kts 259°
2026-04-30 19:51 41.99446 21.98259 35111 ft 365 kts 259°
2026-04-30 19:52 41.98883 21.94901 35346 ft 365 kts 259°
2026-04-30 19:52 41.98330 21.91608 35824 ft 356 kts 259°
2026-04-30 19:52 41.97784 21.88364 35988 ft 359 kts 259°
2026-04-30 19:52 41.97232 21.85086 36231 ft 357 kts 259°
2026-04-30 19:53 41.96690 21.81874 36418 ft 356 kts 259°
2026-04-30 19:53 41.96140 21.78615 36492 ft 359 kts 259°
2026-04-30 19:53 41.95585 21.75336 36640 ft 359 kts 259°
2026-04-30 19:53 41.95034 21.72081 36863 ft 356 kts 259°
2026-04-30 19:54 41.94485 21.68854 37102 ft 354 kts 259°
2026-04-30 19:54 41.93945 21.65688 37278 ft 353 kts 259°
2026-04-30 19:54 41.92665 21.59204 37278 ft 362 kts 255°
2026-04-30 19:55 41.91101 21.52700 37267 ft 369 kts 255°
2026-04-30 19:55 41.89506 21.46083 37274 ft 376 kts 255°
2026-04-30 19:56 41.87905 21.39363 37277 ft 383 kts 255°
2026-04-30 19:56 41.86286 21.32546 37271 ft 390 kts 255°
2026-04-30 19:57 41.84612 21.25512 37262 ft 392 kts 255°
2026-04-30 19:57 41.82976 21.18665 37252 ft 380 kts 255°
2026-04-30 19:58 41.81424 21.11969 37271 ft 379 kts 255°
2026-04-30 19:58 41.79815 21.05177 37275 ft 384 kts 255°
2026-04-30 19:59 41.78157 20.98394 37274 ft 388 kts 255°
2026-04-30 20:00 41.75617 20.88021 37255 ft 384 kts 255°
2026-04-30 20:00 41.74013 20.81364 37251 ft 375 kts 255°
2026-04-30 20:01 41.71564 20.71470 37244 ft 369 kts 255°
2026-04-30 20:01 41.69954 20.64952 37236 ft 368 kts 255°
2026-04-30 20:02 41.67548 20.55213 37223 ft 370 kts 255°
2026-04-30 20:03 41.63253 20.40780 37235 ft 379 kts 251°
2026-04-30 20:03 41.56081 20.17763 37162 ft 389 kts 251°
2026-04-30 20:04 41.53989 20.11078 37150 ft 390 kts 251°
2026-04-30 20:05 41.50872 20.01153 37143 ft 384 kts 251°
2026-04-30 20:05 41.47788 19.91353 37126 ft 379 kts 251°
2026-04-30 20:06 41.45756 19.84913 37112 ft 374 kts 251°
2026-04-30 20:06 41.43744 19.78551 37121 ft 371 kts 251°
2026-04-30 20:07 41.41782 19.72746 37118 ft 370 kts 244°
2026-04-30 20:07 41.38687 19.67418 37138 ft 375 kts 233°
2026-04-30 20:08 41.36921 19.64863 37118 ft 375 kts 234°
2026-04-30 20:08 41.33422 19.59739 37127 ft 373 kts 234°
2026-04-30 20:09 41.29949 19.54628 37120 ft 371 kts 234°
2026-04-30 20:09 41.24766 19.47007 37105 ft 369 kts 234°
2026-04-30 20:10 41.19634 19.39482 37094 ft 366 kts 234°
2026-04-30 20:11 41.14516 19.31995 37090 ft 363 kts 234°
2026-04-30 20:11 41.11124 19.27042 37094 ft 362 kts 234°
2026-04-30 20:12 41.06005 19.19580 37110 ft 370 kts 234°
2026-04-30 20:13 41.02490 19.14465 37120 ft 380 kts 234°
2026-04-30 20:13 40.98896 19.09247 37121 ft 390 kts 234°
2026-04-30 20:14 40.95187 19.03872 37116 ft 399 kts 234°
2026-04-30 20:14 40.91399 18.98390 37112 ft 408 kts 234°
2026-04-30 20:15 40.87892 18.92468 37101 ft 407 kts 246°
2026-04-30 20:15 40.85119 18.85930 37113 ft 415 kts 245°
2026-04-30 20:16 40.82208 18.79299 37105 ft 420 kts 245°
2026-04-30 20:16 40.79263 18.72629 37093 ft 417 kts 245°
2026-04-30 20:17 40.76363 18.66157 37097 ft 406 kts 242°
2026-04-30 20:17 40.72574 18.60561 37111 ft 415 kts 228°
2026-04-30 20:18 40.68231 18.55549 37119 ft 414 kts 229°
2026-04-30 20:18 40.63962 18.50538 37110 ft 413 kts 229°
2026-04-30 20:19 40.59671 18.45485 37112 ft 413 kts 229°
2026-04-30 20:19 40.55381 18.40441 37120 ft 414 kts 229°
2026-04-30 20:20 40.51083 18.35398 37113 ft 415 kts 229°
2026-04-30 20:20 40.46769 18.30348 37124 ft 416 kts 229°
2026-04-30 20:21 40.42431 18.25278 37121 ft 417 kts 229°
2026-04-30 20:21 40.38110 18.20238 37125 ft 418 kts 229°
2026-04-30 20:22 40.33782 18.15205 37139 ft 414 kts 229°
2026-04-30 20:22 40.29457 18.10177 37134 ft 416 kts 229°
2026-04-30 20:23 40.25126 18.05149 37133 ft 417 kts 229°
2026-04-30 20:23 40.20765 18.00100 37119 ft 416 kts 229°
2026-04-30 20:24 40.16432 17.95094 37125 ft 416 kts 229°
2026-04-30 20:24 40.12106 17.90102 37130 ft 415 kts 229°
2026-04-30 20:25 40.05749 17.82804 37116 ft 387 kts 229°
2026-04-30 20:26 39.99663 17.75801 37153 ft 394 kts 230°
2026-04-30 20:26 39.93422 17.68632 37146 ft 403 kts 229°
2026-04-30 20:27 39.84864 17.58856 37155 ft 414 kts 229°
2026-04-30 20:28 39.76902 17.49796 37154 ft 421 kts 229°
2026-04-30 20:30 39.65771 17.37188 37094 ft 413 kts 229°
2026-04-30 20:30 39.59992 17.30655 36663 ft 413 kts 229°
2026-04-30 20:31 39.53564 17.23414 35831 ft 402 kts 230°
2026-04-30 20:32 39.47254 17.16315 34450 ft 397 kts 231°
2026-04-30 20:32 39.43120 17.11677 33464 ft 390 kts 231°
2026-04-30 20:33 39.41069 17.09378 32958 ft 389 kts 231°
2026-04-30 20:33 39.36972 17.04783 32219 ft 390 kts 230°
2026-04-30 20:34 39.30771 16.97841 32148 ft 400 kts 230°
2026-04-30 20:35 39.24476 16.90835 32154 ft 396 kts 230°
2026-04-30 20:35 39.18230 16.83892 32152 ft 394 kts 230°
2026-04-30 20:36 39.14080 16.79287 32152 ft 393 kts 230°
2026-04-30 20:37 39.08021 16.72584 32146 ft 384 kts 230°
2026-04-30 20:37 39.03973 16.68102 32147 ft 388 kts 230°
2026-04-30 20:38 38.99861 16.63558 32129 ft 392 kts 230°
2026-04-30 20:38 38.95724 16.59000 32109 ft 393 kts 230°
2026-04-30 20:39 38.89561 16.52233 32106 ft 385 kts 230°
2026-04-30 20:40 38.84325 16.46483 32101 ft 386 kts 230°
2026-04-30 20:41 38.81910 16.43835 32104 ft 386 kts 230°
2026-04-30 20:41 38.77820 16.39358 32114 ft 386 kts 230°
2026-04-30 20:42 38.73690 16.34854 31536 ft 394 kts 229°
2026-04-30 20:42 38.69518 16.30379 30969 ft 389 kts 229°
2026-04-30 20:43 38.68992 16.29815 30886 ft 390 kts 229°
2026-04-30 20:43 38.67749 16.28483 30720 ft 391 kts 228°
2026-04-30 20:44 38.65032 16.25568 30341 ft 392 kts 228°
2026-04-30 20:44 38.63080 16.23475 30051 ft 393 kts 228°
2026-04-30 20:45 38.58886 16.18981 29373 ft 395 kts 228°
2026-04-30 20:45 38.56764 16.16709 28924 ft 398 kts 228°
2026-04-30 20:45 38.54619 16.14411 28374 ft 404 kts 227°
2026-04-30 20:46 38.48259 16.07619 26864 ft 413 kts 227°
2026-04-30 20:47 38.47422 16.06726 26676 ft 414 kts 227°
2026-04-30 20:47 38.45661 16.04851 26278 ft 414 kts 227°
2026-04-30 20:48 38.45002 16.04149 26134 ft 415 kts 227°
2026-04-30 20:48 38.42769 16.01768 25637 ft 415 kts 227°
2026-04-30 20:48 38.40556 15.99409 25154 ft 414 kts 227°
2026-04-30 20:48 38.39140 15.97900 24849 ft 413 kts 227°
2026-04-30 20:49 38.37706 15.96373 24539 ft 410 kts 227°
2026-04-30 20:49 38.35526 15.94055 24071 ft 405 kts 227°
2026-04-30 20:50 38.31243 15.89503 23056 ft 397 kts 226°
2026-04-30 20:50 38.29131 15.87257 22511 ft 394 kts 226°
2026-04-30 20:50 38.27117 15.85119 22019 ft 391 kts 226°
2026-04-30 20:50 38.26980 15.84974 21982 ft 391 kts 226°
2026-04-30 20:51 38.24893 15.82758 21466 ft 388 kts 226°
2026-04-30 20:51 38.20775 15.78392 20465 ft 384 kts 226°
2026-04-30 20:51 38.18726 15.76222 19961 ft 382 kts 226°
2026-04-30 20:52 38.16687 15.74066 19498 ft 380 kts 225°
2026-04-30 20:52 38.14655 15.71915 19020 ft 379 kts 225°
2026-04-30 20:52 38.10668 15.67709 18020 ft 362 kts 225°
2026-04-30 20:53 38.08752 15.65698 17537 ft 351 kts 224°
2026-04-30 20:53 38.06731 15.63995 17045 ft 349 kts 211°
2026-04-30 20:53 38.04521 15.62855 16570 ft 345 kts 206°
2026-04-30 20:54 38.00108 15.60678 15504 ft 335 kts 207°
2026-04-30 20:54 37.97965 15.59596 15053 ft 329 kts 207°
2026-04-30 20:54 37.95843 15.58518 14518 ft 327 kts 207°
2026-04-30 20:55 37.91657 15.56387 13444 ft 322 kts 206°
2026-04-30 20:55 37.89591 15.55337 12961 ft 318 kts 206°
2026-04-30 20:55 37.87546 15.54300 12648 ft 315 kts 206°
2026-04-30 20:56 37.83835 15.51638 12032 ft 298 kts 233°
2026-04-30 20:56 37.82625 15.49574 11802 ft 290 kts 240°
2026-04-30 20:56 37.80408 15.45451 11466 ft 277 kts 240°
2026-04-30 20:57 37.79331 15.43450 11318 ft 274 kts 240°
2026-04-30 20:57 37.78259 15.41463 11166 ft 273 kts 240°
2026-04-30 20:57 37.77186 15.39481 11024 ft 272 kts 240°
2026-04-30 20:58 37.75046 15.35535 10557 ft 278 kts 239°
2026-04-30 20:58 37.73942 15.33506 10287 ft 279 kts 239°
2026-04-30 20:58 37.72845 15.31494 9990 ft 275 kts 239°
2026-04-30 20:58 37.71776 15.29539 9664 ft 267 kts 239°
2026-04-30 20:59 37.69711 15.25763 9023 ft 255 kts 239°
2026-04-30 20:59 37.68713 15.23940 8705 ft 250 kts 239°
2026-04-30 21:00 37.66779 15.20406 8084 ft 240 kts 238°
2026-04-30 21:00 37.64909 15.16989 7318 ft 240 kts 238°
2026-04-30 21:01 37.63025 15.13550 6357 ft 239 kts 237°
2026-04-30 21:01 37.62076 15.11823 5927 ft 235 kts 237°
2026-04-30 21:01 37.60300 15.08592 5418 ft 214 kts 237°
2026-04-30 21:02 37.59477 15.07097 5237 ft 201 kts 237°
2026-04-30 21:02 37.58689 15.05663 5142 ft 199 kts 237°
2026-04-30 21:02 37.57900 15.04228 5144 ft 199 kts 237°
2026-04-30 21:02 37.57115 15.02802 5137 ft 197 kts 237°
2026-04-30 21:03 37.56334 15.01380 5134 ft 197 kts 237°
2026-04-30 21:03 37.55552 14.99960 5135 ft 197 kts 237°
2026-04-30 21:03 37.54769 14.98538 5133 ft 197 kts 237°
2026-04-30 21:03 37.53995 14.97135 5126 ft 197 kts 237°
2026-04-30 21:04 37.53212 14.95714 5133 ft 197 kts 237°
2026-04-30 21:04 37.52432 14.94299 5109 ft 189 kts 237°
2026-04-30 21:04 37.50982 14.91676 5142 ft 183 kts 237°
2026-04-30 21:05 37.50242 14.90334 5127 ft 188 kts 237°
2026-04-30 21:05 37.49486 14.88968 5019 ft 192 kts 237°
2026-04-30 21:05 37.48722 14.87587 4769 ft 189 kts 236°
2026-04-30 21:05 37.47778 14.86528 4498 ft 181 kts 197°
2026-04-30 21:06 37.46612 14.86674 4171 ft 169 kts 141°
2026-04-30 21:06 37.46057 14.87865 3989 ft 164 kts 97°
2026-04-30 21:06 37.45851 14.89310 3748 ft 170 kts 105°
2026-04-30 21:06 37.45495 14.90693 3490 ft 161 kts 97°
2026-04-30 21:07 37.45534 14.92042 3270 ft 150 kts 84°
2026-04-30 21:07 37.45574 14.93344 3018 ft 150 kts 88°
2026-04-30 21:07 37.45670 14.94686 2800 ft 157 kts 83°
2026-04-30 21:07 37.45792 14.96047 2540 ft 155 kts 84°
2026-04-30 21:08 37.45905 14.97388 2265 ft 154 kts 84°
2026-04-30 21:08 37.46018 14.98743 1881 ft 156 kts 85°
2026-04-30 21:08 37.46130 15.00092 1451 ft 157 kts 83°
2026-04-30 21:08 37.46245 15.01459 1072 ft 155 kts 84°
2026-04-30 21:09 37.46361 15.02802 648 ft 156 kts 82°
2026-04-30 21:09 37.46462 15.04169 363 ft 153 kts 83°
2026-04-30 21:09 37.46581 15.05483 87 ft 146 kts 83°
2026-04-30 21:09 37.46675 15.06585 36 ft 89 kts 83°
2026-04-30 21:10 37.46720 15.07114 32 ft 40 kts 85°
2026-04-30 21:10 37.46744 15.07419 31 ft 25 kts 84°
2026-04-30 21:10 37.46786 15.07618 31 ft 23 kts 68°
2026-04-30 21:10 37.46848 15.07761 30 ft 14 kts 59°
2026-04-30 21:11 37.46865 15.07790 29 ft 1 kts 48°
2026-04-30 21:11 37.46880 15.07805 28 ft 4 kts 31°
2026-04-30 21:11 37.46916 15.07801 28 ft 6 kts 326°
2026-04-30 21:11 37.46931 15.07758 29 ft 6 kts 279°
2026-04-30 21:12 37.46933 15.07708 31 ft 6 kts 266°
2026-04-30 21:12 37.46929 15.07660 32 ft 6 kts 266°
2026-04-30 21:12 37.46923 15.07612 32 ft 5 kts 262°
2026-04-30 21:12 37.46919 15.07552 32 ft 9 kts 266°
2026-04-30 21:13 37.46913 15.07469 32 ft 10 kts 264°
2026-04-30 21:13 37.46907 15.07382 32 ft 10 kts 261°
2026-04-30 21:13 37.46903 15.07300 33 ft 9 kts 266°
2026-04-30 21:13 37.46894 15.07219 34 ft 9 kts 261°
2026-04-30 21:14 37.46889 15.07141 34 ft 9 kts 263°
2026-04-30 21:14 37.46880 15.07061 33 ft 10 kts 263°
2026-04-30 21:14 37.46873 15.06976 31 ft 10 kts 264°
2026-04-30 21:14 37.46866 15.06888 30 ft 10 kts 264°
2026-04-30 21:15 37.46859 15.06802 32 ft 10 kts 264°
2026-04-30 21:15 37.46852 15.06719 33 ft 9 kts 263°
2026-04-30 21:15 37.46845 15.06646 34 ft 8 kts 263°
2026-04-30 21:15 37.46839 15.06590 33 ft 2 kts 263°
2026-04-30 21:16 37.46844 15.06570 33 ft 3 kts 297°
2026-04-30 21:16 37.46860 15.06555 32 ft 3 kts 340°
2026-04-30 21:16 37.46886 15.06557 32 ft 4 kts 12°
2026-04-30 21:16 37.46916 15.06568 31 ft 5 kts 18°
2026-04-30 21:17 37.46931 15.06574 31 ft 0 kts 18°